{"data":{"norad_id":60065,"epoch":"2026-09-21T09:45:38.467008Z","epoch_age_seconds":98950,"freshness":"FRESH","line1":"1 60065U 24113G   26264.40669522 -.00001499  00000+0 -75245-5 0  9994","line2":"2 60065  53.1583 306.1870 0001038  81.1620 278.9516 15.69698307130308","mean_motion":15.69698307,"eccentricity":0.0001038,"inclination_deg":53.1583,"raan_deg":306.187,"arg_perigee_deg":81.162,"mean_anomaly_deg":278.9516,"bstar":-7.5245e-6,"rev_number":13030,"period_min":91.737373581814,"perigee_km":359.0608177871,"apogee_km":360.45960524821,"semimajor_km":6737.8972115177,"source":"CELESTRAK","updated_at":"2026-09-22T09:00:49.147416Z"}}